Location: Brno
(49.2000°N, 16.6330°E)
Time: 11:17:09
(UTC+02:00)

Cosmos 332 Rocket - Visible Passes

Search period start: 29 March 2017 00:00
Search period end: 08 April 2017 00:00
Orbit: 682 x 705 km, 74.0° (Epoch: 27 March)

Date Brightness Start Highest point End Pass type
(mag) Time Alt. Az. Time Alt. Az. Time Alt. Az.
29 Mar 6.0 04:38:36 10° SSE 04:42:29 24° E 04:46:23 10° NE visible
30 Mar 4.2 05:18:26 10° S 05:23:18 67° ESE 05:28:10 10° NNE visible
31 Mar 5.8 04:20:15 10° SSE 04:24:17 26° E 04:28:20 10° NE visible
31 Mar 4.2 05:59:48 10° SW 06:04:30 46° WNW 06:09:14 10° NNE visible
01 Apr 4.0 05:00:15 10° SSW 05:05:08 73° ESE 05:10:01 10° NNE visible
02 Apr 5.5 04:02:31 13° SSE 04:06:05 29° E 04:10:16 10° NE visible
02 Apr 4.3 05:41:44 10° SW 05:46:23 42° WNW 05:51:02 10° NNE visible
03 Apr 6.5 03:05:59 10° ESE 03:07:22 11° E 03:08:46 10° ENE visible
03 Apr 3.9 04:43:25 19° SSW 04:46:58 80° ESE 04:51:52 10° NNE visible
04 Apr 5.3 03:45:31 21° SSE 03:47:53 31° ESE 03:52:11 10° NE visible
04 Apr 4.5 05:24:14 13° SW 05:28:15 39° WNW 05:32:50 10° N visible
05 Apr 6.4 02:47:34 11° ESE 02:49:08 12° E 02:51:06 10° ENE visible
05 Apr 3.8 04:26:17 29° SSW 04:28:48 87° ESE 04:33:42 10° NNE visible
06 Apr 5.1 03:28:16 28° SE 03:29:41 34° ESE 03:34:05 10° NE visible
06 Apr 4.6 05:06:58 17° WSW 05:10:07 36° WNW 05:14:38 10° N visible
07 Apr 6.2 02:30:13 13° ESE 02:30:54 14° E 02:33:18 10° ENE visible
07 Apr 3.7 04:08:55 41° SSW 04:10:38 85° WNW 04:15:33 10° NNE visible
